Sexton Summit, OR

8:10 PM PDT on April 24, 2017 (GMT -0700)
Sexton Summit

Weather History for KSXT - May, 2013

Change the Weather History Date:

Saturday, May 25, 2013

  Actual Average Record
Temperature  
Mean Temperature 48 °F -  
Max Temperature 62 °F 61 °F 82 °F (2005)
Min Temperature 36 °F 40 °F 32 °F (1998)
Degree Days  
Heating Degree Days 18    
Moisture  
Dew Point 36 °F    
Average Humidity 77    
Maximum Humidity 96    
Minimum Humidity 39    
Precipitation  
Precipitation 0.08 in - - ()
Sea Level Pressure  
Sea Level Pressure 30.02 in    
Wind  
Wind Speed 6 mph (SE)    
Max Wind Speed 12 mph    
Max Gust Speed -    
Visibility 8 miles    
Events Fog , Rain    
Averages and records for this station are not official NWS values.
T = Trace of Precipitation, MM = Missing Value Source: NWS Daily Summary

Daily Weather History Graph

Daily Weather History Graph

Search for Another Location

Airport or City:

Trip Planner

Search our weather history database for the weather conditions in past years. The results will help you decide how hot, cold, wet, or windy it might be!

Date:

Astronomy

May. 25, 2013 Rise Set
Actual Time 5:42 AM PDT 8:39 PM PDT
Civil Twilight 5:08 AM PDT 9:12 PM PDT
Nautical Twilight 4:26 AM PDT 9:55 PM PDT
Astronomical Twilight 3:36 AM PDT 10:45 PM PDT
Moon 9:32 PM PDT 6:15 AM PDT
Length of Visible Light 16h 03m
Length of Day
14h 56m
Waxing Gibbous, 99% of the Moon is Illuminated
May 25
Waxing Gibbous
May 31
Last Quarter
Jun 8
New
Jun 16
First Quarter
Jun 23
Full

Hourly Weather History & Observations

Time (PDT) Temp. Windchill Dew Point Humidity Pressure Visibility Wind Dir Wind Speed Gust Speed Precip Events Conditions
12:33 AM 37.4 °F 31.4 °F 35.6 °F 93% 30.05 in 8.0 mi North 8.1 mph - N/A   Scattered Clouds
12:56 AM 37.0 °F 31.0 °F 36.0 °F 96% 30.06 in 8.0 mi North 8.1 mph - N/A   Partly Cloudy
1:05 AM 37.4 °F 30.8 °F 35.6 °F 93% 30.04 in 1.8 mi North 9.2 mph - N/A   Scattered Clouds
1:08 AM 37.4 °F 32.1 °F 35.6 °F 93% 30.04 in 1.2 mi North 6.9 mph - N/A   Mostly Cloudy
1:11 AM 37.4 °F 31.4 °F 35.6 °F 93% 30.04 in 0.8 mi North 8.1 mph - N/A   Mist
1:22 AM 37.4 °F 32.1 °F 35.6 °F 93% 30.04 in 0.2 mi North 6.9 mph - N/A Fog Fog
1:56 AM 37.0 °F 31.6 °F 36.0 °F 96% 30.04 in 0.2 mi North 6.9 mph - 0.00 in Fog Fog
2:52 AM 37.4 °F - 33.8 °F 87% 30.03 in 1.2 mi Calm Calm - N/A   Mostly Cloudy
2:54 AM 37.4 °F - 33.8 °F 87% 30.03 in 4.0 mi Calm Calm - N/A   Mostly Cloudy
2:56 AM 37.0 °F - 34.0 °F 89% 30.04 in 9.0 mi Calm Calm - N/A   Scattered Clouds
3:56 AM 37.9 °F 35.5 °F 34.0 °F 86% 30.03 in 10.0 mi SSE 3.5 mph - N/A   Clear
4:56 AM 37.0 °F 32.4 °F 34.0 °F 89% 30.02 in 10.0 mi SSE 5.8 mph - N/A   Clear
5:56 AM 36.0 °F 29.6 °F 34.0 °F 93% 30.03 in 10.0 mi SSE 8.1 mph - N/A   Clear
6:56 AM 37.9 °F 33.5 °F 35.1 °F 89% 30.04 in 10.0 mi South 5.8 mph - N/A   Clear
7:56 AM 41.0 °F 38.0 °F 36.0 °F 82% 30.04 in 10.0 mi SE 4.6 mph - N/A   Clear
8:56 AM 44.1 °F 41.5 °F 37.0 °F 76% 30.04 in 10.0 mi ESE 4.6 mph - N/A   Clear
9:56 AM 48.0 °F - 37.9 °F 68% 30.03 in 10.0 mi Variable 3.5 mph - N/A   Clear
10:56 AM 50.0 °F - 37.9 °F 63% 30.03 in 10.0 mi Calm Calm - N/A   Clear
11:56 AM 51.1 °F - 37.0 °F 59% 30.03 in 10.0 mi Calm Calm - N/A   Clear
12:56 PM 55.0 °F - 30.9 °F 40% 30.02 in 10.0 mi Calm Calm - 0.00 in Rain Light Rain
1:56 PM 57.0 °F - 32.0 °F 39% 30.01 in 10.0 mi Calm Calm - 0.00 in   Clear
2:56 PM 57.9 °F - 34.0 °F 41% 29.98 in 10.0 mi Variable 4.6 mph - 0.00 in   Scattered Clouds
3:56 PM 59.0 °F - 36.0 °F 42% 29.97 in 10.0 mi Calm Calm - N/A   Overcast
4:56 PM 57.9 °F - 37.9 °F 47% 29.96 in 10.0 mi NNW 3.5 mph - 0.00 in   Scattered Clouds
5:56 PM 55.9 °F - 37.0 °F 49% 29.97 in 10.0 mi Variable 5.8 mph - 0.00 in Rain Light Rain
6:56 PM 52.0 °F - 37.0 °F 57% 29.98 in 10.0 mi Variable 4.6 mph - 0.00 in   Overcast
7:56 PM 50.0 °F - 36.0 °F 59% 29.98 in 10.0 mi Variable 3.5 mph - N/A   Overcast
8:56 PM 46.0 °F 43.1 °F 39.0 °F 76% 29.99 in 9.0 mi Variable 5.8 mph - 0.00 in Rain Light Rain
9:56 PM 43.0 °F 36.8 °F 41.0 °F 93% 29.99 in 8.0 mi SSW 11.5 mph - 0.07 in Rain Light Rain
10:56 PM 43.0 °F 37.7 °F 41.0 °F 93% 29.98 in 10.0 mi South 9.2 mph - 0.01 in   Overcast
11:03 PM 42.8 °F 37.0 °F 41.0 °F 93% 30.00 in 10.0 mi South 10.4 mph - N/A   Overcast
11:46 PM 42.8 °F 36.6 °F 41.0 °F 93% 30.00 in 10.0 mi South 11.5 mph - N/A   Overcast
11:56 PM 43.0 °F 36.8 °F 41.0 °F 93% 29.97 in 10.0 mi South 11.5 mph - N/A   Overcast